Boone, NC

11:53 AM EDT on October 18, 2017 (GMT -0400)
Boone

Weather History for KTNB - May, 2013

Change the Weather History Date:

Sunday, May 5, 2013

  Actual Average (KGEV) Record (KGEV)
Temperature  
Mean Temperature 43 °F -  
Max Temperature 48 °F 68 °F 81 °F (1969)
Min Temperature 39 °F 41 °F 28 °F (1986)
Degree Days  
Heating Degree Days 22    
Moisture  
Dew Point 43 °F    
Average Humidity 100    
Maximum Humidity 100    
Minimum Humidity 99    
Precipitation  
Precipitation 2.30 in - - ()
Sea Level Pressure  
Sea Level Pressure 29.98 in    
Wind  
Wind Speed 10 mph (ESE)    
Max Wind Speed 16 mph    
Max Gust Speed 30 mph    
Visibility 3 miles    
Events Rain    
Averages and records for this station are not official NWS values.
T = Trace of Precipitation, MM = Missing Value Source: NWS Daily Summary

Daily Weather History Graph

Daily Weather History Graph

Search for Another Location

Airport or City:

Trip Planner

Search our weather history database for the weather conditions in past years. The results will help you decide how hot, cold, wet, or windy it might be!

Date:

Astronomy

May. 05, 2013 Rise Set
Actual Time 6:29 AM EDT 8:17 PM EDT
Civil Twilight 6:01 AM EDT 8:45 PM EDT
Nautical Twilight 5:27 AM EDT 9:19 PM EDT
Astronomical Twilight 4:51 AM EDT 9:55 PM EDT
Moon 3:51 AM EDT (5/5) 4:22 PM EDT (5/5)
Length of Visible Light 14h 44m
Length of Day
13h 48m
Waning Crescent, 18% of the Moon is Illuminated
May 5
Waning Crescent
May 9
New
May 18
First Quarter
May 25
Full
May 31
Last Quarter

Hourly Weather History & Observations

Time (EDT) Temp. Windchill Dew Point Humidity Pressure Visibility Wind Dir Wind Speed Gust Speed Precip Events Conditions
12:15 AM 44.8 °F 39.0 °F 44.8 °F 100% 30.07 in 3.0 mi ESE 11.5 mph 19.6 mph 0.03 in Rain Rain
12:35 AM 45.0 °F 39.7 °F 45.0 °F 100% 30.07 in 3.0 mi ESE 10.4 mph 19.6 mph 0.05 in Rain Rain
12:55 AM 44.8 °F 38.7 °F 44.8 °F 100% 30.08 in 3.0 mi ESE 12.7 mph 21.9 mph 0.07 in Rain Rain
1:15 AM 44.8 °F 37.7 °F 44.8 °F 100% 30.06 in 3.0 mi ESE 16.1 mph 25.3 mph 0.01 in Rain Rain
1:35 AM 44.6 °F 40.2 °F 44.6 °F 100% 30.05 in 2.5 mi ESE 8.1 mph 20.7 mph 0.01 in   Unknown
1:55 AM 44.1 °F 37.7 °F 44.1 °F 100% 30.03 in 0.5 mi ESE 12.7 mph 28.8 mph 0.02 in Rain Light Rain
2:15 AM 44.1 °F 37.7 °F 44.1 °F 100% 30.02 in 1.0 mi ESE 12.7 mph 26.5 mph N/A   Unknown
2:35 AM 43.7 °F 36.3 °F 43.7 °F 100% 30.02 in 4.0 mi ESE 16.1 mph 27.6 mph N/A   Overcast
2:55 AM 43.2 °F 37.4 °F 43.2 °F 100% 30.02 in 7.0 mi East 10.4 mph 21.9 mph N/A   Drizzle
3:15 AM 42.4 °F 37.0 °F 42.4 °F 100% 30.02 in 10.0 mi East 9.2 mph 17.3 mph 0.01 in   Drizzle
3:35 AM 42.4 °F 36.5 °F 42.4 °F 100% 30.02 in 10.0 mi ESE 10.4 mph 20.7 mph 0.01 in   Drizzle
3:55 AM 42.4 °F 36.5 °F 42.4 °F 100% 30.01 in 7.0 mi ESE 10.4 mph 29.9 mph 0.01 in   Drizzle
4:15 AM 42.3 °F 35.9 °F 42.3 °F 100% 30.00 in 7.0 mi ESE 11.5 mph 19.6 mph 0.01 in Rain Light Rain
4:35 AM 41.4 °F 36.2 °F 41.4 °F 100% 30.00 in 7.0 mi ESE 8.1 mph 23.0 mph 0.02 in Rain Rain
4:55 AM 41.2 °F 34.5 °F 41.2 °F 100% 29.98 in 4.0 mi ESE 11.5 mph 19.6 mph 0.05 in Rain Rain
5:35 AM 40.3 °F 33.4 °F 40.3 °F 100% 29.99 in 5.0 mi ESE 11.5 mph 19.6 mph 0.03 in Rain Rain
5:55 AM 39.7 °F 34.3 °F 39.6 °F 99% 30.00 in 4.0 mi ESE 8.1 mph 16.1 mph 0.04 in Rain Rain
6:15 AM 39.6 °F 32.5 °F 39.6 °F 100% 30.01 in 2.5 mi ESE 11.5 mph 19.6 mph 0.04 in Rain Rain
6:35 AM 39.2 °F 33.6 °F 39.2 °F 100% 30.02 in 3.0 mi East 8.1 mph 16.1 mph 0.07 in Rain Rain
6:55 AM 39.2 °F 35.0 °F 39.2 °F 100% 30.01 in 1.8 mi East 5.8 mph - 0.11 in Rain Heavy Rain
7:15 AM 39.4 °F 33.2 °F 39.4 °F 100% 30.00 in 1.8 mi East 9.2 mph - 0.04 in Rain Rain
7:35 AM 39.4 °F 35.2 °F 39.4 °F 100% 30.00 in 2.0 mi ESE 5.8 mph 16.1 mph 0.05 in   Drizzle
7:55 AM 39.2 °F 33.6 °F 39.2 °F 100% 30.00 in 2.5 mi ESE 8.1 mph 18.4 mph 0.05 in Rain Light Rain
8:15 AM 39.2 °F 34.2 °F 39.2 °F 100% 30.00 in 4.0 mi ESE 6.9 mph - 0.01 in Rain Rain
8:35 AM 39.2 °F 34.2 °F 39.2 °F 100% 30.00 in 1.8 mi East 6.9 mph 17.3 mph 0.02 in   Drizzle
8:55 AM 39.6 °F 34.7 °F 39.6 °F 100% 30.00 in 7.0 mi ESE 6.9 mph 16.1 mph 0.02 in   Overcast
9:15 AM 39.7 °F 35.6 °F 39.7 °F 100% 30.00 in 5.0 mi ESE 5.8 mph - N/A   Overcast
9:35 AM 40.1 °F 34.7 °F 40.1 °F 100% 30.01 in 5.0 mi ESE 8.1 mph 20.7 mph N/A   Overcast
9:55 AM 39.6 °F 34.7 °F 39.6 °F 100% 30.00 in 7.0 mi ESE 6.9 mph - N/A   Overcast
10:15 AM 39.7 °F 34.9 °F 39.7 °F 100% 30.00 in 5.0 mi ESE 6.9 mph - 0.01 in Rain Light Rain
10:35 AM 40.1 °F 34.1 °F 40.1 °F 100% 29.99 in 3.0 mi ESE 9.2 mph - 0.03 in Rain Light Rain
10:55 AM 40.3 °F 35.5 °F 40.3 °F 100% 29.99 in 2.5 mi ESE 6.9 mph - 0.05 in Rain Rain
11:15 AM 40.3 °F 34.4 °F 40.3 °F 100% 29.99 in 1.5 mi ESE 9.2 mph 16.1 mph 0.05 in Rain Heavy Rain
11:35 AM 40.1 °F 34.7 °F 40.1 °F 100% 30.00 in 2.0 mi ESE 8.1 mph 17.3 mph 0.11 in Rain Rain
11:55 AM 39.7 °F 32.3 °F 39.7 °F 100% 29.99 in 2.5 mi ESE 12.7 mph 18.4 mph 0.15 in Rain Rain
12:15 PM 39.7 °F 33.7 °F 39.7 °F 100% 29.99 in 2.5 mi ESE 9.2 mph - 0.02 in Rain Light Rain
12:35 PM 39.9 °F 33.9 °F 39.9 °F 100% 29.98 in 2.0 mi ESE 9.2 mph - 0.05 in Rain Rain
12:55 PM 40.5 °F 34.1 °F 40.5 °F 100% 29.97 in 2.0 mi ESE 10.4 mph 17.3 mph 0.10 in Rain Rain
1:15 PM 41.2 °F 35.5 °F 41.2 °F 100% 29.98 in 2.5 mi ESE 9.2 mph - 0.04 in Rain Rain
1:35 PM 41.2 °F 35.5 °F 41.2 °F 100% 29.99 in 1.2 mi SE 9.2 mph 17.3 mph 0.14 in Rain Heavy Rain
2:15 PM 41.5 °F 35.9 °F 41.5 °F 100% 29.99 in 1.5 mi ESE 9.2 mph 16.1 mph 0.05 in Rain Heavy Rain
2:35 PM 41.5 °F 37.1 °F 41.5 °F 100% 29.99 in 1.5 mi ESE 6.9 mph - 0.15 in Rain Heavy Rain
2:55 PM 41.5 °F 37.1 °F 41.5 °F 100% 29.99 in 1.8 mi ESE 6.9 mph - 0.23 in Rain Heavy Rain
3:15 PM 41.5 °F 37.1 °F 41.5 °F 100% 29.98 in 1.8 mi ESE 6.9 mph - 0.07 in Rain Rain
3:35 PM 41.9 °F 36.3 °F 41.9 °F 100% 29.97 in 1.5 mi ESE 9.2 mph 17.3 mph 0.16 in Rain Heavy Rain
3:55 PM 42.1 °F 36.6 °F 42.1 °F 100% 29.97 in 1.5 mi ESE 9.2 mph - 0.25 in Rain Heavy Rain
4:15 PM 43.0 °F 37.7 °F 43.0 °F 100% 29.93 in 3.0 mi ESE 9.2 mph - 0.04 in Rain Rain
4:35 PM 43.3 °F 37.7 °F 43.3 °F 100% 29.94 in 1.5 mi SE 10.4 mph 16.1 mph 0.11 in Rain Heavy Rain
4:55 PM 43.3 °F 37.2 °F 43.3 °F 100% 29.92 in 2.0 mi ESE 11.5 mph 20.7 mph 0.19 in Rain Rain
5:15 PM 43.3 °F 37.7 °F 43.3 °F 100% 29.92 in 1.8 mi ESE 10.4 mph 21.9 mph 0.05 in Rain Heavy Rain
5:35 PM 43.5 °F 37.5 °F 43.5 °F 100% 29.94 in 2.5 mi ESE 11.5 mph 24.2 mph 0.08 in Rain Heavy Rain
5:55 PM 43.7 °F 38.1 °F 43.7 °F 100% 29.92 in 1.8 mi ESE 10.4 mph 19.6 mph 0.14 in Rain Light Rain
6:15 PM 43.7 °F 37.7 °F 43.7 °F 100% 29.92 in 2.5 mi ESE 11.5 mph 20.7 mph 0.02 in Rain Rain
6:35 PM 43.9 °F 38.3 °F 43.9 °F 100% 29.91 in 2.0 mi ESE 10.4 mph 18.4 mph 0.07 in Rain Rain
6:55 PM 44.1 °F 38.1 °F 44.1 °F 100% 29.91 in 2.5 mi ESE 11.5 mph 27.6 mph 0.10 in Rain Rain
7:15 PM 44.4 °F 38.6 °F 44.4 °F 100% 29.91 in 2.5 mi ESE 11.5 mph 24.2 mph 0.02 in Rain Rain
7:35 PM 44.6 °F 38.8 °F 44.6 °F 100% 29.90 in 3.0 mi ESE 11.5 mph 21.9 mph 0.04 in Rain Rain
7:55 PM 45.0 °F 39.3 °F 45.0 °F 100% 29.91 in 2.0 mi East 11.5 mph 24.2 mph 0.07 in Rain Rain
8:15 PM 45.1 °F 39.1 °F 45.1 °F 100% 29.91 in 1.5 mi ESE 12.7 mph 21.9 mph 0.05 in Rain Rain
8:35 PM 45.5 °F 38.6 °F 45.5 °F 100% 29.90 in 3.0 mi ESE 16.1 mph 24.2 mph 0.09 in Rain Rain
8:55 PM 45.7 °F 40.2 °F 45.7 °F 100% 29.92 in 2.0 mi ESE 11.5 mph 25.3 mph 0.17 in Rain Heavy Rain
9:15 PM 46.0 °F 41.0 °F 46.0 °F 100% 29.91 in 3.0 mi ESE 10.4 mph 21.9 mph 0.04 in Rain Rain
9:35 PM 46.4 °F 41.5 °F 46.4 °F 100% 29.91 in 3.0 mi East 10.4 mph 24.2 mph 0.07 in Rain Rain
9:55 PM 46.9 °F - 46.9 °F 100% 29.93 in 3.0 mi ESE 10.4 mph 21.9 mph 0.15 in Rain Heavy Rain
10:35 PM 47.5 °F - 47.5 °F 100% 29.91 in 4.0 mi ESE 10.4 mph 23.0 mph 0.08 in Rain Rain
10:55 PM 47.5 °F - 47.5 °F 100% 29.90 in 4.0 mi ESE 15.0 mph 26.5 mph 0.11 in Rain Rain
11:15 PM 47.7 °F - 47.7 °F 100% 29.92 in 4.0 mi ESE 13.8 mph 25.3 mph 0.01 in Rain Rain
11:35 PM 47.8 °F - 47.8 °F 100% 29.91 in 1.8 mi ESE 13.8 mph 26.5 mph 0.02 in   Light Drizzle
11:55 PM 48.0 °F - 48.0 °F 100% 29.89 in 2.5 mi ESE 11.5 mph 20.7 mph 0.08 in Rain Rain